Location: North Bay
(46.3091°N, 79.4608°W)
Time: 09:43:55
(UTC-04:00)

ISS - Visible Passes

Search period start: 17 July 2024 00:00
Search period end: 27 July 2024 00:00
Orbit: 410 x 424 km, 51.6° (Epoch: 17 July)

Date Brightness Start Highest point End Pass type
(mag) Time Alt. Az. Time Alt. Az. Time Alt. Az.
17 Jul -2.7 00:52:17 10° WNW 00:54:33 40° WNW 00:54:33 40° WNW visible
17 Jul -2.0 22:27:05 10° WNW 22:30:06 31° N 22:33:06 10° ENE visible
18 Jul -3.4 00:03:58 10° WNW 00:07:14 59° NNE 00:07:33 55° NE visible
18 Jul -2.0 21:38:33 10° WNW 21:41:34 31° N 21:44:35 10° ENE visible
18 Jul -2.8 23:15:35 10° WNW 23:18:48 44° NNE 23:20:35 22° E visible
19 Jul -1.5 00:52:24 10° WNW 00:53:27 18° W 00:53:27 18° W visible
19 Jul -2.4 22:27:10 10° WNW 22:30:17 36° NNE 22:33:23 10° E visible
20 Jul -3.2 00:03:53 10° WNW 00:06:30 49° W 00:06:30 49° W visible
20 Jul -2.2 21:38:39 10° WNW 21:41:42 32° N 21:44:44 10° ENE visible
20 Jul -3.8 23:15:25 10° WNW 23:18:45 80° NNE 23:19:33 48° ESE visible
21 Jul -3.3 22:26:56 10° WNW 22:30:12 56° NNE 22:32:36 17° E visible
22 Jul -1.8 00:03:53 10° W 00:05:28 21° W 00:05:28 21° W visible
22 Jul -2.8 21:38:24 10° WNW 21:41:36 43° NNE 21:44:47 10° E visible
22 Jul -3.4 23:15:11 10° WNW 23:18:22 45° SW 23:18:31 45° SSW visible
23 Jul -3.8 22:26:32 10° WNW 22:29:51 73° SSW 22:31:35 25° SE visible
24 Jul -3.7 21:37:55 10° WNW 21:41:14 76° NNE 21:44:32 10° ESE visible
24 Jul -1.9 23:15:12 10° W 23:17:32 19° SW 23:17:32 19° SW visible
25 Jul -2.6 22:26:10 10° WNW 22:29:09 31° SW 22:30:37 21° S visible
26 Jul -3.2 21:37:20 10° WNW 21:40:33 49° SW 21:43:43 10° SE visible
